Regional Weather Roundup
Issued by NWS

Home | Current Version | Previous Version | Text Only | Print | Product List | Glossary Off
Versions: 1 2 3 4 5 6 7 8 9 10 11 12 13 14 15 16 17 18 19 20 21 22 23 24 25 26 27 28 29 30 31 32 33 34 35 36 37 38 39 40 41 42 43 44 45 46 47 48 49 50

000
ASUS45 KABQ 201010
RWRNM
WEATHER ROUNDUP FOR NEW MEXICO
NATIONAL WEATHER SERVICE ALBUQUERQUE NM
400 AM MDT SAT SEP 20 2014

NOTE: "FAIR" MEANS FEW OR NO CLOUDS BELOW 12,000 FEET AGL WITH NO
       SIGNIFICANT WEATHER OR OBSTRUCTIONS TO VISION.

      THIS PRODUCT IS RELEASED AS TWO VERSIONS.  ONE VERSION NEAR
      THE TOP OF THE HOUR CONTAINING PRELIMINARY DATA FROM ALBUQUERQUE
      AND OTHER STATIONS.  A FINAL VERSION WITH ADDITIONAL DATA IS
      ISSUED ABOUT 10 MINUTES AFTER THE HOUR.

NMZ501-503-504-510>518-201100-
NORTHWEST PLATEAU/NORTHCENTRAL MOUNTAINS

CITY           SKY/WX    TMP DP  RH WIND       PRES   REMARKS
FARMINGTON     CLEAR     58  44  60 E5        30.09S
LOS ALAMOS     CLEAR     58  57  99 CALM      30.24S
SANTA FE       CLEAR     57  54  89 CALM      30.18S
TAOS           CLEAR     50  43  76 CALM      30.25S
ANGEL FIRE     FOG       45  43  93 CALM      30.34S VSB 1/4

$$
NMZ402-403-502-505>509-201100-
WESTCENTRAL MOUNTAINS/SOUTHWEST MOUNTAINS

CITY           SKY/WX    TMP DP  RH WIND       PRES   REMARKS
GALLUP         CLEAR     49  35  58 CALM      30.18S
GRANTS         CLEAR     46  41  81 NW5       30.20S
SILVER CITY    PTCLDY    63  59  88 N8        30.12F

$$
NMZ407-409-411-412-201100-
SOUTHERN DESERTS

CITY           SKY/WX    TMP DP  RH WIND       PRES   REMARKS
LORDSBURG      FAIR      64  63  94 MISG      30.04S
DEMING         CLEAR     65  63  93 W6        30.04S
LAS CRUCES     PTCLDY    65  62  89 CALM      30.05S
HOLLOMAN AFB   CLOUDY    66  66  98 CALM      30.02S
ALAMOGORDO     CLOUDY    68  64  88 NE6       30.04S
T OR C         CLEAR     65  60  84 NW6       30.07R

$$
NMZ519>523-201100-
CENTRAL VALLEYS/CENTRAL HIGHLANDS

CITY           SKY/WX    TMP DP  RH WIND       PRES   REMARKS
ALBUQUERQUE    CLEAR     66  58  75 NW5       30.12S
DOUBLE EAGLE   CLEAR     55  53  91 CALM      30.15S
MORIARTY ARPT  FOG       58  56  94 CALM      30.19S VSB 1/2
CLINES CORNERS FOG       52  51  97 CALM      30.21S VSB 3/4
BELEN          FAIR      61  58  91 CALM      30.10S
SOCORRO        FAIR      62  60  93 W5        30.08S

$$
NMZ524>526-539-540-201100-
SOUTHCENTRAL MOUNTAINS

CITY           SKY/WX    TMP DP  RH WIND       PRES   REMARKS
RUIDOSO        CLOUDY    59  57  94 SW7       30.22S

$$
NMZ527>531-201100-
NORTHEAST HIGHLANDS/NORTHEAST PLAINS

CITY           SKY/WX    TMP DP  RH WIND       PRES   REMARKS
LAS VEGAS      CLOUDY    59  58  96 SW5       30.21S FOG
RATON          CLOUDY    62  57  83 W5        30.17S
CLAYTON        MOCLDY    62  60  93 SW10      30.08F

$$
NMZ532>537-201100-
EASTCENTRAL PLAINS

CITY           SKY/WX    TMP DP  RH WIND       PRES   REMARKS
TUCUMCARI      PTCLDY    64  60  87 W5        30.05F
CANNON AFB     CLOUDY    64 N/A N/A SW3       30.07S
CLOVIS AIRPORT   N/A     64  63  94 NW3       30.09S

$$
NMZ028-029-538-201100-
SOUTHEAST PLAINS

CITY           SKY/WX    TMP DP  RH WIND       PRES   REMARKS
ROSWELL        CLOUDY    68  67  96 N5        30.02S
CARLSBAD       MOCLDY    70  32  24 NW6       29.96F
HOBBS          CLOUDY    68  68 100 CALM      30.01S FOG


$$


USA.gov is the U.S. government's official web portal to all federal, state and local government web resources and services.